Cleveland, OH

11:46 AM EDT on June 27, 2017 (GMT -0400)
Cleveland-Hopkins International

Weather History for KCLE - April, 2013

Change the Weather History Date:

Friday, April 19, 2013

  Actual Average Record
Temperature  
Mean Temperature 54 °F 51 °F  
Max Temperature 71 °F 61 °F 84 °F (1958)
Min Temperature 36 °F 42 °F 22 °F (1887)
Degree Days  
Heating Degree Days 11 14  
Month to date heating degree days 315 333  
Since 1 July heating degree days 5454 5376  
Cooling Degree Days 0 0  
Month to date cooling degree days 2 0  
Year to date cooling degree days 2 1  
Growing Degree Days 2 (Base 50)    
Moisture  
Dew Point 44 °F    
Average Humidity 71    
Maximum Humidity 92    
Minimum Humidity 49    
Precipitation  
Precipitation 0.29 in 0.12 in 1.92 in (2017)
Month to date precipitation 2.44 2.30  
Year to date precipitation 9.16 10.29  
Snow  
Snow T in 0.10 in - ()
Month to date snowfall 0.2 3.0  
Since 1 July snowfall 51.6 67.8  
Snow Depth T in    
Sea Level Pressure  
Sea Level Pressure 29.60 in    
Wind  
Wind Speed 21 mph (SW)    
Max Wind Speed 37 mph    
Max Gust Speed 47 mph    
Visibility 8 miles    
Events Rain    
T = Trace of Precipitation, MM = Missing Value Source: NWS Daily Summary

Daily Weather History Graph

Daily Weather History Graph

Search for Another Location

Airport or City:

Trip Planner

Search our weather history database for the weather conditions in past years. The results will help you decide how hot, cold, wet, or windy it might be!

Date:

Astronomy

Apr. 19, 2013 Rise Set
Actual Time 6:41 AM EDT 8:12 PM EDT
Civil Twilight 6:12 AM EDT 8:41 PM EDT
Nautical Twilight 5:37 AM EDT 9:16 PM EDT
Astronomical Twilight 5:00 AM EDT 9:53 PM EDT
Moon 1:51 PM EDT (4/19) 3:00 AM EDT (4/19)
Length of Visible Light 14h 29m
Length of Day
13h 31m
First Quarter, 61% of the Moon is Illuminated
Apr 19
First Quarter
Apr 25
Full
May 2
Last Quarter
May 9
New
May 18
First Quarter

Hourly Weather History & Observations

Time (EDT) Temp. Windchill Dew Point Humidity Pressure Visibility Wind Dir Wind Speed Gust Speed Precip Events Conditions
12:51 AM 64.0 °F - 55.9 °F 75% 29.65 in 10.0 mi East 4.6 mph - N/A   Overcast
1:21 AM 64.0 °F - 55.9 °F 75% 29.64 in 10.0 mi ESE 8.1 mph - N/A   Overcast
1:51 AM 64.0 °F - 55.9 °F 75% 29.60 in 10.0 mi SE 3.5 mph - N/A   Overcast
2:51 AM 68.0 °F - 54.0 °F 61% 29.55 in 10.0 mi South 12.7 mph - N/A   Overcast
3:51 AM 71.1 °F - 52.0 °F 51% 29.51 in 10.0 mi South 18.4 mph 24.2 mph N/A   Overcast
4:51 AM 71.1 °F - 52.0 °F 51% 29.47 in 10.0 mi South 23.0 mph 31.1 mph N/A   Overcast
5:51 AM 71.1 °F - 53.1 °F 53% 29.44 in 10.0 mi South 23.0 mph 33.4 mph N/A   Overcast
6:51 AM 71.1 °F - 54.0 °F 55% 29.44 in 10.0 mi South 18.4 mph 27.6 mph N/A   Overcast
7:51 AM 66.9 °F - 57.9 °F 73% 29.44 in 9.0 mi South 17.3 mph 28.8 mph 0.02 in Rain Light Rain
8:02 AM 64.9 °F - 59.0 °F 81% 29.43 in 2.5 mi SSE 24.2 mph 33.4 mph 0.04 in Rain Heavy Rain
8:27 AM 64.0 °F - 60.1 °F 87% 29.41 in 5.0 mi SSE 20.7 mph 26.5 mph 0.14 in Rain Light Rain
8:51 AM 64.9 °F - 59.0 °F 81% 29.40 in 10.0 mi South 13.8 mph 24.2 mph 0.14 in   Overcast
9:09 AM 62.1 °F - 57.9 °F 86% 29.46 in 3.0 mi WNW 25.3 mph 40.3 mph 0.00 in Rain Heavy Rain
9:13 AM 55.9 °F - 53.1 °F 90% 29.46 in 1.8 mi WNW 24.2 mph 35.7 mph 0.05 in Rain Heavy Rain
9:18 AM 53.1 °F - 50.0 °F 89% 29.47 in 3.0 mi West 24.2 mph 35.7 mph 0.08 in Rain Heavy Rain
9:25 AM 51.1 °F - 48.0 °F 89% 29.48 in 7.0 mi West 21.9 mph 35.7 mph 0.08 in Rain Light Rain
9:51 AM 48.9 °F - 46.0 °F 90% 29.51 in 6.0 mi West 29.9 mph 34.5 mph 0.08 in Rain Light Rain
10:19 AM 46.0 °F 37.6 °F 42.1 °F 86% 29.53 in 4.0 mi WSW 24.2 mph 32.2 mph 0.02 in Rain Light Rain
10:48 AM 44.6 °F 36.9 °F 42.8 °F 93% 29.55 in 2.5 mi WSW 18.4 mph - 0.02 in Rain Light Rain
10:51 AM 45.0 °F 38.2 °F 43.0 °F 93% 29.55 in 2.5 mi WSW 15.0 mph - 0.02 in Rain Light Rain
11:02 AM 45.0 °F 37.1 °F 43.0 °F 93% 29.55 in 3.0 mi West 19.6 mph 25.3 mph 0.01 in Rain Light Rain
11:37 AM 45.0 °F 36.0 °F 39.9 °F 82% 29.59 in 10.0 mi WSW 25.3 mph 39.1 mph 0.02 in   Overcast
11:51 AM 45.0 °F 36.2 °F 39.9 °F 82% 29.60 in 10.0 mi WSW 24.2 mph 40.3 mph 0.02 in Rain Light Rain
12:51 PM 43.0 °F 33.1 °F 35.1 °F 74% 29.62 in 10.0 mi WSW 26.5 mph 39.1 mph 0.00 in   Overcast
1:51 PM 44.1 °F 34.2 °F 34.0 °F 68% 29.65 in 10.0 mi WSW 28.8 mph 43.7 mph N/A   Overcast
2:32 PM 43.0 °F 33.8 °F 35.1 °F 74% 29.67 in 10.0 mi WSW 23.0 mph 29.9 mph N/A   Overcast
2:51 PM 44.1 °F 35.2 °F 35.1 °F 71% 29.68 in 10.0 mi WSW 23.0 mph 35.7 mph N/A   Overcast
3:51 PM 44.1 °F 34.0 °F 32.0 °F 63% 29.69 in 10.0 mi WSW 29.9 mph 38.0 mph N/A   Overcast
4:51 PM 43.0 °F 33.3 °F 32.0 °F 65% 29.73 in 10.0 mi WSW 25.3 mph 34.5 mph N/A   Overcast
5:51 PM 43.0 °F 32.9 °F 30.9 °F 62% 29.76 in 10.0 mi WSW 27.6 mph 35.7 mph N/A   Overcast
6:51 PM 42.1 °F 33.9 °F 32.0 °F 67% 29.77 in 10.0 mi WSW 17.3 mph 32.2 mph N/A   Overcast
7:51 PM 42.1 °F 32.8 °F 30.0 °F 62% 29.80 in 10.0 mi WSW 21.9 mph 35.7 mph N/A   Overcast
8:51 PM 41.0 °F 30.5 °F 28.9 °F 62% 29.82 in 10.0 mi WSW 26.5 mph 33.4 mph N/A   Overcast
9:51 PM 41.0 °F 31.6 °F 28.0 °F 60% 29.84 in 10.0 mi WSW 20.7 mph 33.4 mph N/A   Overcast
10:51 PM 39.9 °F 31.8 °F 28.0 °F 63% 29.86 in 10.0 mi SW 15.0 mph 24.2 mph N/A   Overcast
11:51 PM 39.9 °F 30.5 °F 28.9 °F 65% 29.87 in 10.0 mi SW 19.6 mph 28.8 mph 0.00 in Rain Light Rain